[[{"header":{"parameterUnit":"m.s-1","parameterCategory":1,"la1":30.2991,"la2":30.254,"lo1":-89.0895,"lo2":-89.0444,"dy":0.0017,"dx":0.0017,"nx":28,"ny":28,"refTime":"2025-09-17T21:00:00:Z","depth":0,"parameterNumber":2,"parameterNumberName":"U-component_of_WINDS"},"data":[0,0,0,0,0,0,0,0,0,0,0,0,0,0,0,0,0,0,0,0,0,0,0,0,0,0,0,0,0,0,0,0,0,0,0,0,0,0,0,0,0,0,0,0,0,0,0,0,0,0,0,0,0,0,0,0,0,0,-0.6251,-0.6251,0,-0.6249,-0.6249,-0.6249,-0.6216,-0.6216,-0.6215,-0.6214,-0.6211,-0.6212,-0.6213,0,0,0,0,0,0,0,0,0,0,0,0,0,-0.6228,-0.6229,-0.6251,-0.6251,-0.6251,-0.6249,-0.6249,-0.6249,-0.6217,-0.6216,-0.6215,-0.6214,-0.6211,-0.6212,-0.6213,0,0,0,0,0,0,0,0,0,0,0,0,0,-0.6233,-0.6229,-0.6251,-0.6235,-0.6233,-0.6249,-0.6249,-0.6249,-0.6217,-0.6216,-0.6214,-0.6213,-0.6211,-0.6212,-0.6213,-0.6244,0,0,-0.6216,-0.6216,0,0,0,0,0,0,0,0,-0.6233,-0.6234,-0.6237,-0.6236,-0.6234,-0.6232,-0.624,-0.6247,-0.6217,-0.6223,-0.6214,-0.6213,-0.6219,-0.6219,-0.6222,-0.6243,-0.6243,-0.6216,-0.6217,-0.6217,-0.6217,0,0,0,0,0,0,0,-0.6233,-0.6234,-0.625,-0.6237,-0.6236,-0.6228,-0.6227,-0.6241,-0.6228,-0.6222,-0.622,-0.622,-0.6218,-0.6221,-0.6221,-0.6243,-0.6216,-0.6217,-0.6218,-0.6218,-0.6291,-0.6292,0,0,0,0,0,0,-0.6235,-0.6234,-0.625,-0.625,-0.6231,-0.6229,-0.6228,-0.6234,-0.6228,-0.6226,-0.6221,-0.6219,-0.6219,-0.622,-0.6221,-0.6257,-0.6217,-0.6218,-0.6219,-0.629,-0.6291,-0.6293,0,0,0,0,0,0,-0.6234,-0.6237,-0.625,-0.6241,-0.6243,-0.6231,-0.6237,-0.6234,-0.6237,-0.6227,-0.6224,-0.6226,-0.6219,-0.622,-0.6238,-0.6257,-0.6219,-0.622,-0.6288,-0.629,-0.6292,-0.633,0,0,0,0,0,0,-0.6234,-0.6237,-0.6248,-0.6242,-0.6243,-0.6268,-0.6238,-0.6235,-0.6239,-0.6235,-0.6231,-0.6229,-0.6218,-0.6237,-0.6239,-0.6257,-0.622,-0.6286,-0.6289,-0.6291,-0.6327,-0.6333,-0.6338,0,0,0,0,0,-0.6233,-0.6259,-0.6249,-0.6251,-0.6257,-0.6269,-0.627,-0.6256,-0.624,-0.6252,-0.6245,-0.6229,-0.6254,-0.6239,-0.6242,-0.626,-0.6285,-0.6288,-0.6291,-0.6324,-0.6332,-0.6338,0,0,0,0,0,0,-0.6267,-0.6258,-0.6247,-0.6271,-0.6271,-0.6264,-0.6278,-0.6264,-0.6269,-0.6266,-0.6248,-0.6248,-0.6269,-0.6266,-0.625,-0.629,-0.6267,-0.627,-0.6291,-0.6298,-0.6304,-0.6304,-0.6221,0,0,0,0,0,-0.6278,-0.6288,-0.6279,-0.6301,-0.6302,-0.629,-0.6294,-0.6284,-0.6283,-0.6283,-0.6278,-0.6278,-0.6286,-0.6292,-0.6298,-0.6326,-0.6325,-0.634,-0.6345,-0.635,-0.6354,-0.6369,-0.6376,-0.6302,-0.6302,-0.6302,0,0,-0.6299,-0.6295,-0.6303,-0.6308,-0.6307,-0.6318,-0.629,-0.6303,-0.6311,-0.6285,-0.6303,-0.6299,-0.6298,-0.6322,-0.6332,-0.632,-0.6373,-0.6354,-0.6357,-0.6359,-0.6373,-0.638,-0.6386,-0.6304,-0.6304,-0.6304,0,0,-0.6345,-0.6342,-0.6361,-0.636,-0.6359,-0.6351,-0.6355,-0.635,-0.6347,-0.6364,-0.6345,-0.6354,-0.6368,-0.6368,-0.637,-0.6416,-0.6401,-0.6418,-0.6448,-0.6463,-0.6468,-0.6473,-0.6491,-0.6497,-0.6422,-0.6422,-0.6422,0,-0.6372,-0.6388,-0.6372,-0.6387,-0.639,-0.6367,-0.6386,-0.6386,-0.6387,-0.6389,-0.6376,-0.6393,-0.6391,-0.6414,-0.6426,-0.6427,-0.6433,-0.6419,-0.6469,-0.6474,-0.6478,-0.6494,-0.6501,-0.6424,-0.6424,-0.6423,-0.6423,0,-0.6422,-0.6433,-0.6448,-0.645,-0.6455,-0.6471,-0.6459,-0.6465,-0.6454,-0.6448,-0.6466,-0.6462,-0.6468,-0.6472,-0.6462,-0.6495,-0.6488,-0.6472,-0.6448,-0.6488,-0.6503,-0.6509,-0.6427,-0.6426,-0.6426,-0.6425,0,0,-0.6489,-0.6482,-0.6488,-0.6489,-0.6486,-0.6494,-0.651,-0.6516,-0.6522,-0.6523,-0.6536,-0.6548,-0.6534,-0.6536,-0.6525,-0.6538,-0.6576,-0.6521,-0.652,-0.6532,-0.6613,-0.6626,-0.6634,-0.6565,-0.6566,-0.6567,-0.6614,0,-0.6534,-0.656,-0.6547,-0.6575,-0.6586,-0.6564,-0.6578,-0.6577,-0.6571,-0.658,-0.6573,-0.6582,-0.6562,-0.6563,-0.6575,-0.6569,-0.6592,-0.6565,-0.6578,-0.6579,-0.6581,-0.6641,-0.6655,-0.6699,-0.6619,-0.662,-0.6621,0,-0.659,-0.6594,-0.6623,-0.6619,-0.6623,-0.6635,-0.664,-0.6648,-0.6647,-0.6641,-0.6644,-0.663,-0.6645,-0.6621,-0.6642,-0.6624,-0.6629,-0.6626,-0.6628,-0.663,-0.6603,-0.6646,-0.6712,-0.672,-0.663,-0.6629,-0.6628,0,-0.6638,-0.665,-0.667,-0.6671,-0.6666,-0.6675,-0.6673,-0.6671,-0.6676,-0.6679,-0.6682,-0.6687,-0.6691,-0.6695,-0.6683,-0.6667,-0.6706,-0.6681,-0.6703,-0.6704,-0.6714,-0.6713,-0.6783,-0.6714,-0.6714,-0.6714,-0.6714,0,-0.669,-0.6709,-0.6691,-0.6704,-0.6725,-0.6709,-0.673,-0.6726,-0.6724,-0.6735,-0.6716,-0.6727,-0.6709,-0.6718,-0.6709,-0.6728,-0.673,-0.6726,-0.6724,-0.6729,-0.673,-0.6733,-0.673,-0.6716,-0.6715,-0.6715,-0.6715,0,-0.6747,-0.6736,-0.6756,-0.675,-0.6748,-0.6764,-0.6758,-0.677,-0.6762,-0.6776,-0.6779,-0.6767,-0.6777,-0.6765,-0.6774,-0.6767,-0.6794,-0.6786,-0.6795,-0.6793,-0.6817,-0.6815,-0.6892,-0.6902,-0.6825,-0.6826,-0.6827,0,-0.6782,-0.6797,-0.6791,-0.6798,-0.6797,-0.6807,-0.6812,-0.6796,-0.6802,-0.6802,-0.6813,-0.6821,-0.6827,-0.6844,-0.6837,-0.6843,-0.6836,-0.6863,-0.6837,-0.6842,-0.6838,-0.6838,-0.684,-0.6868,-0.6869,-0.687,-0.6871,0,-0.6845,-0.6839,-0.6847,-0.6852,-0.6858,-0.6862,-0.6864,-0.687,-0.6854,-0.6861,-0.6871,-0.6876,-0.6885,-0.6894,-0.6898,-0.6896,-0.6881,-0.6878,-0.6884,-0.689,-0.6895,-0.6894,-0.6811,-0.6877,-0.6876,-0.6876,-0.6876,-0.6875,-0.6894,-0.6906,-0.6904,-0.6913,-0.6913,-0.6916,-0.6926,-0.692,-0.6928,-0.6934,-0.6924,-0.6937,-0.6936,-0.6941,-0.694,-0.695,-0.6939,-0.6947,-0.6949,-0.6952,-0.6956,-0.6892,-0.6951,-0.6951,-0.695,-0.695,-0.695,0,-0.6957,-0.6955,-0.6963,-0.6967,-0.6974,-0.6959,-0.696,-0.6968,-0.6979,-0.6979,-0.6986,-0.6997,-0.7006,-0.6999,-0.7006,-0.7015,-0.7008,-0.7017,-0.7017,-0.7017,-0.6965,-0.696,-0.7023,-0.7023,-0.7023,-0.7023,-0.7023,-0.7023,-0.6991,-0.7011,-0.7005,-0.7025,-0.7022,-0.7035,-0.7037,-0.7039,-0.704,-0.7054,-0.7061,-0.7056,-0.7053,-0.706,-0.7067,-0.7065,-0.7069,-0.7081,-0.7076,-0.7028,-0.7021,-0.7014,-0.7009,-0.7081,-0.7082,-0.7128,-0.7128,-0.7129]},{"header":{"parameterUnit":"m.s-1","parameterCategory":1,"la1":30.2991,"la2":30.254,"lo1":-89.0895,"lo2":-89.0444,"dy":0.0017,"dx":0.0017,"nx":28,"ny":28,"refTime":"2025-09-17T21:00:00:Z","depth":0,"parameterNumber":3,"parameterNumberName":"V-component_of_WINDS"},"data":[0,0,0,0,0,0,0,0,0,0,0,0,0,0,0,0,0,0,0,0,0,0,0,0,0,0,0,0,0,0,0,0,0,0,0,0,0,0,0,0,0,0,0,0,0,0,0,0,0,0,0,0,0,0,0,0,0,0,-2.0585,-2.0585,0,-2.0593,-2.0593,-2.0594,-2.0561,-2.056,-2.0559,-2.0558,-2.0566,-2.0567,-2.0568,0,0,0,0,0,0,0,0,0,0,0,0,0,-2.054,-2.0541,-2.0585,-2.0585,-2.0585,-2.0593,-2.0593,-2.0594,-2.0561,-2.056,-2.0559,-2.0558,-2.0566,-2.0567,-2.0568,0,0,0,0,0,0,0,0,0,0,0,0,0,-2.0555,-2.0542,-2.0585,-2.057,-2.0568,-2.0593,-2.0594,-2.0594,-2.0561,-2.056,-2.0558,-2.0557,-2.0565,-2.0567,-2.0569,-2.0608,0,0,-2.0574,-2.0574,0,0,0,0,0,0,0,0,-2.0555,-2.0557,-2.0572,-2.0571,-2.0569,-2.0575,-2.0581,-2.0598,-2.0562,-2.0564,-2.0558,-2.0556,-2.057,-2.0571,-2.0576,-2.0609,-2.0609,-2.0574,-2.0575,-2.0576,-2.0576,0,0,0,0,0,0,0,-2.0554,-2.0556,-2.0588,-2.0572,-2.0571,-2.0563,-2.0563,-2.0584,-2.0575,-2.0564,-2.0561,-2.0563,-2.0569,-2.0575,-2.0576,-2.0609,-2.0574,-2.0575,-2.0576,-2.0577,-2.0676,-2.0678,0,0,0,0,0,0,-2.0555,-2.0556,-2.0588,-2.0588,-2.0558,-2.0565,-2.0565,-2.0574,-2.0575,-2.0573,-2.0564,-2.0561,-2.0572,-2.0574,-2.0576,-2.0624,-2.0576,-2.0577,-2.0578,-2.0675,-2.0677,-2.0678,0,0,0,0,0,0,-2.0554,-2.0558,-2.0588,-2.0572,-2.0575,-2.0567,-2.0578,-2.0575,-2.0581,-2.0575,-2.0573,-2.0571,-2.0571,-2.0574,-2.0601,-2.0624,-2.0578,-2.058,-2.0673,-2.0675,-2.0678,-2.0719,0,0,0,0,0,0,-2.0553,-2.0558,-2.0572,-2.0572,-2.0576,-2.0612,-2.0579,-2.0577,-2.0584,-2.058,-2.0581,-2.058,-2.057,-2.0599,-2.0603,-2.0625,-2.0581,-2.0671,-2.0674,-2.0677,-2.0716,-2.0723,-2.0729,0,0,0,0,0,-2.0551,-2.0583,-2.0573,-2.0577,-2.0594,-2.0614,-2.0616,-2.0604,-2.0586,-2.0601,-2.0597,-2.058,-2.062,-2.0602,-2.0606,-2.0629,-2.0669,-2.0673,-2.0677,-2.0713,-2.0722,-2.0729,0,0,0,0,0,0,-2.0586,-2.0583,-2.0572,-2.0605,-2.061,-2.0608,-2.0627,-2.0613,-2.0623,-2.0619,-2.0604,-2.0605,-2.0635,-2.0634,-2.0614,-2.0669,-2.0642,-2.0646,-2.0668,-2.0676,-2.0682,-2.0683,-2.0582,0,0,0,0,0,-2.0597,-2.0614,-2.061,-2.0639,-2.0643,-2.0634,-2.0642,-2.0633,-2.0637,-2.0639,-2.0638,-2.0643,-2.0657,-2.0666,-2.0678,-2.0715,-2.0716,-2.0734,-2.074,-2.0746,-2.075,-2.0772,-2.078,-2.069,-2.069,-2.069,0,0,-2.0621,-2.0622,-2.0633,-2.0647,-2.0649,-2.0667,-2.0636,-2.0656,-2.0669,-2.0642,-2.0668,-2.0667,-2.0672,-2.0705,-2.0719,-2.0705,-2.0775,-2.075,-2.0755,-2.0756,-2.0776,-2.0785,-2.0792,-2.0693,-2.0692,-2.0692,0,0,-2.0674,-2.0676,-2.0701,-2.0705,-2.071,-2.0704,-2.0711,-2.0711,-2.071,-2.0736,-2.0717,-2.0732,-2.0756,-2.0761,-2.0766,-2.0822,-2.0807,-2.0826,-2.0861,-2.0882,-2.0889,-2.0895,-2.0917,-2.0925,-2.0831,-2.0831,-2.0831,0,-2.0704,-2.0729,-2.0716,-2.0738,-2.0745,-2.0722,-2.0749,-2.0752,-2.0761,-2.0767,-2.0751,-2.0782,-2.0783,-2.0818,-2.0832,-2.0836,-2.0844,-2.0827,-2.0889,-2.0895,-2.0901,-2.0921,-2.0929,-2.0833,-2.0833,-2.0833,-2.0833,0,-2.0766,-2.0784,-2.0804,-2.0814,-2.0823,-2.0847,-2.0838,-2.0849,-2.0839,-2.0835,-2.0863,-2.0864,-2.0877,-2.0884,-2.0874,-2.0918,-2.0909,-2.0892,-2.0864,-2.0912,-2.0931,-2.0939,-2.0837,-2.0836,-2.0835,-2.0835,0,0,-2.0841,-2.0844,-2.0852,-2.0857,-2.0861,-2.0875,-2.0898,-2.0912,-2.0922,-2.0929,-2.0949,-2.097,-2.0954,-2.096,-2.0951,-2.0969,-2.1016,-2.0949,-2.0949,-2.0963,-2.1066,-2.1081,-2.109,-2.1005,-2.1007,-2.1008,-2.1066,0,-2.0895,-2.0935,-2.0924,-2.0964,-2.0982,-2.0961,-2.0981,-2.0986,-2.0984,-2.0998,-2.0995,-2.1011,-2.0988,-2.0992,-2.1009,-2.1007,-2.1037,-2.1002,-2.1025,-2.1026,-2.1026,-2.11,-2.1115,-2.117,-2.1074,-2.1075,-2.1076,0,-2.0962,-2.0973,-2.1015,-2.1018,-2.1025,-2.1044,-2.1056,-2.107,-2.1076,-2.1072,-2.108,-2.1067,-2.1091,-2.1063,-2.1095,-2.1072,-2.1081,-2.1081,-2.1083,-2.1086,-2.1055,-2.1106,-2.1187,-2.1196,-2.1087,-2.1086,-2.1085,0,-2.1016,-2.104,-2.1069,-2.1074,-2.1077,-2.1091,-2.1093,-2.1097,-2.1107,-2.1117,-2.1123,-2.1136,-2.1143,-2.1154,-2.1145,-2.1125,-2.118,-2.115,-2.1179,-2.1179,-2.1192,-2.1192,-2.1277,-2.1195,-2.1195,-2.1195,-2.1195,0,-2.1077,-2.1104,-2.1093,-2.1111,-2.1141,-2.1129,-2.1159,-2.1159,-2.1163,-2.1181,-2.1163,-2.118,-2.1166,-2.1183,-2.1176,-2.1205,-2.1208,-2.1207,-2.1205,-2.1209,-2.121,-2.1216,-2.1212,-2.1197,-2.1197,-2.1196,-2.1196,0,-2.1142,-2.1135,-2.1166,-2.1167,-2.1169,-2.1191,-2.1192,-2.1209,-2.1205,-2.1228,-2.1233,-2.1227,-2.1245,-2.1237,-2.1256,-2.1251,-2.129,-2.1282,-2.1288,-2.1287,-2.1316,-2.1314,-2.141,-2.1422,-2.1331,-2.1332,-2.1332,0,-2.1183,-2.1203,-2.1207,-2.1219,-2.1222,-2.124,-2.125,-2.1238,-2.1249,-2.1258,-2.1274,-2.1291,-2.1304,-2.1334,-2.1332,-2.1347,-2.134,-2.1372,-2.1342,-2.1347,-2.1343,-2.1343,-2.1345,-2.1379,-2.138,-2.1381,-2.1382,0,-2.1256,-2.1253,-2.1267,-2.1282,-2.1294,-2.1305,-2.1314,-2.1324,-2.1313,-2.1326,-2.1345,-2.1355,-2.1375,-2.1393,-2.1406,-2.1408,-2.1394,-2.1391,-2.1399,-2.1404,-2.1408,-2.1409,-2.1307,-2.1389,-2.1388,-2.1388,-2.1388,-2.1387,-2.1311,-2.133,-2.1336,-2.1354,-2.1359,-2.1369,-2.1385,-2.1384,-2.14,-2.1416,-2.1408,-2.143,-2.1436,-2.1453,-2.1457,-2.1475,-2.1462,-2.1473,-2.1476,-2.1479,-2.1484,-2.1404,-2.1477,-2.1477,-2.1477,-2.1476,-2.1476,0,-2.1386,-2.1389,-2.1405,-2.1419,-2.1434,-2.1419,-2.1428,-2.1441,-2.1462,-2.1469,-2.1482,-2.1505,-2.1522,-2.1521,-2.1537,-2.1552,-2.1546,-2.1556,-2.1556,-2.1557,-2.1494,-2.1486,-2.1561,-2.1561,-2.1561,-2.1561,-2.1561,-2.1561,-2.1426,-2.1457,-2.1454,-2.1488,-2.149,-2.1513,-2.152,-2.1529,-2.1535,-2.1561,-2.1575,-2.1575,-2.1579,-2.1596,-2.1611,-2.161,-2.1618,-2.1632,-2.1629,-2.157,-2.1561,-2.1553,-2.1547,-2.1633,-2.1633,-2.1691,-2.1692,-2.1692]}]]